Estación Meteorológica Peña el Pijo (Robertgarden) [ 07/11/20 21:34:53 CEST ]

Fecha Hora Presion(HPa) Temp (°C) Humedad % Rocio (°C) Viento ( m/s) Direccion Lluvia 1Hora(mm) Lluvia 24H(mm) LLuvia Total(mm)
2020-Apr-23 01:09:07 1008.400 - - - - W     39.88
2020-Apr-23 02:09:25 1008.600 - - - - W     39.88
2020-Apr-23 03:09:16 1008.200 - - - - W     39.88
2020-Apr-23 04:09:28 1007.900 - - - - W     39.88
2020-Apr-23 05:09:42 1008.000 - - - - W     39.88
2020-Apr-23 06:09:02 1007.900 - - - - W     39.88
2020-Apr-23 07:09:26 1007.900 - - - - W     39.88
2020-Apr-23 08:09:39 1008.600 - - - - W     39.88
2020-Apr-23 09:09:36 1008.700 - - - - W     39.88
2020-Apr-23 10:09:12 1008.900 - - - - W     39.88
2020-Apr-23 11:09:06 1009.000 - - - - W     39.88
2020-Apr-23 12:08:59 1008.900 - - - - W     39.88
2020-Apr-23 13:09:44 1008.700 - - - - W     39.88
2020-Apr-23 14:09:14 1008.500 - - - - W     39.88
2020-Apr-23 15:09:19 1008.400 - - - - W     39.88
2020-Apr-23 16:09:10 1008.200 - - - - W     39.88
2020-Apr-23 17:09:04 1007.600 - - - - W     39.88
2020-Apr-23 18:09:04 1007.000 - - - - W     39.88
2020-Apr-23 19:08:44 1006.800 - - - - W     39.88
2020-Apr-23 20:09:03 1006.600 - - - - W     39.88
2020-Apr-23 21:09:09 1006.900 - - - - W     39.88
2020-Apr-23 22:09:37 1007.600 - - - - W     39.88
2020-Apr-23 23:09:26 1007.900 - - - - W     39.88

Temperatura Máxima:    Temperatura Mínima:
Presión Máxima:1009.000 Hpa    Presión Mínima:1006.600 Hpa


Volver